P/L 153 DEB, 19245

Orbit data source: Space-Track

P/L 153 DEB, 19245 is space debris in LEO originally from a launch on Wed, 31 May 1967 UTC launched from the Air Force Western Test Range (AFWTR). Debris objects in space refer to the collection of defunct objects orbiting the Earth. Examples of debris include non-operational satellites, rocket bodies, and fragments generated from explosions, collisions, or faulty payload assembly.

Loading next visibility...
Identifier
19245, 1967-053K
Orbit
LEO
Last TLE update
20 hours ago
Origin
Manufacturer
Unknown
Mission
Spacecraft
Bus & Motor
Unknown
Mass
Unknown
Launch date (UTC)
1967-05-31 (58 years ago)
Launch vehicle
Unknown
Launch site
Air Force Western Test Range (AFWTR)
Object type
Payload
Rocket body
Debris
Shape & HBR
Unknown
Radar Cross Section
Small (<0.1 m²)

Expand to show TLE details & history

TLE from 20 hours ago
0 P/L 153 DEB
1 19245U 67053K   25128.54894147  .00000749  00000-0  36248-3 0  9998
2 19245  69.9556 163.7774 0006147 295.7624 183.6240 14.22275958972750
Epoch: 2025-05-08T13:10Z
Definitive object data (Epoch: 2025-05-08T13:10:28.543Z)
Latitude
55.05711°
Longitude
-111.75151°
Altitude
830.588 km
Speed
7.441 km/s
True Right ascension
20h 49m 56s
True Declination
54° 53' 50"
Sunlit
Object was in daylight at TLE epoch
Visualization TLE readout
Latitude
-10.26777°
Longitude
93.94045°
Altitude
819.338 km
Speed
7.445 km/s
Apparent Right ascension
08h 22m 33s
Apparent Declination
-30° 34' 16"
Sunlit
Object is in daylight
Visualization observer readout
Local Sidereal Time
16:58:20
Azimuth
266.343° W
Elevation
-47.858°
Doppler factor
1
Orbital elements
Apogee altitude
820.111 km
Perigee altitude
811.267 km
Semi-major axis
7,193.826 km
Eccentricity
0.0006147
Inclination
69.9556°
RAAN
163.7774°
Arg. of periapsis
295.7624°
True anomaly
183.61955°
Mean anomaly
183.624°
Eccentric anomaly
183.62178°
Mean motion
3.55716 °/min
BSTAR
0.00036248
Orbital period
101.2 mins
Loading maneuver chart data...
Loading SW <> Apogee altitude chart data...
Loading historical data...
Loading historical data...
Loading historical data...
Loading historical data...
Loading historical data...
Loading historical data...
Loading historical data...

P/L 153 DEB Visibility forecast

Observer location: undefined°, undefined°

Span
Click to sort rows by Start time (UTC) header in descending order
Start Az.
Max El. time (UTC)
Max El. Az.
Max El.
End time (UTC)
End Az.
10 mins2025-05-09 12:47:07.263Z345.952° N2025-05-09 12:52:07.263Z49.378° ENE36.639°2025-05-09 12:57:07.263Z133.103° SE
6 mins2025-05-09 14:33:07.263Z292.933° NW2025-05-09 14:36:07.263Z250.957° W20.449°2025-05-09 14:39:07.263Z214.115° SW
10 mins2025-05-10 03:33:07.263Z202.139° SSW2025-05-10 03:38:07.263Z177.787° S44.932°2025-05-10 03:43:07.263Z24.999° NE
4 mins2025-05-10 05:21:07.263Z294.306° NW2025-05-10 05:23:07.263Z318.559° NNW14.268°2025-05-10 05:25:07.263Z341.176° N
|